Flag for Czech Republic Weather past 2 weeks in Ostrava, Czech Republic

Now
53 °F

Passing clouds.


Feels Like: 53 °F
Forecast: 47 / 69 °F
Wind: 2 mph from South

Location: Ostrava / Mosnov

Current Time: May 28, 2015 at 10:41:07 PM

Latest Report: May 28, 2015 at 9:00 PM


Visibility: 19 mi

Pressure: 30.02 "Hg

Humidity: 60%

Dew point: 39 °F

Location of OstravaLocation

Historic Weather in Ostrava — Graph

°F

Ostrava temperature yesterday

Maximum temperature yesterday: 54 °F (at 1:00 PM)
Minimum temperature yesterday: 48 °F (at 6:00 AM)
Average temperature yesterday: 52 °F

Past Weeks' High & Low Weather Summary

 TemperatureHumidityPressure
High75 °F (May 19, 12:00 PM)99% (May 20, 7:00 AM)30.24 "Hg (May 20, 7:00 AM)
Low38 °F (May 15, 6:00 AM)34% (May 16, 4:00 PM)29.74 "Hg (May 19, 6:00 AM)
Average55 °F76%30.00 "Hg
* Reported May 13 9:00 PM — May 28 9:00 PM, Ostrava, Weather by CustomWeather, © 2015

Note: Actual official high and low records may vary slightly from our data, if they occured in-between our weather recording intervals... More about our weather records

Advertising

Ostrava weather history for previous 24 hours

 ConditionsComfort  
Time TempWeatherWind HumidityBarometerVisibility
9:00 PM
Thu, May 28
53 °FPassing clouds.2 mph60%30.02 "Hg19 mi
8:00 PM55 °FScattered clouds.3 mph56%30.01 "Hg19 mi
7:00 PM56 °FScattered clouds.3 mph49%30.01 "Hg22 mi
6:00 PM57 °FPartly sunny.3 mph45%30.03 "Hg22 mi
5:00 PM58 °FPartly sunny.3 mph42%30.03 "Hg22 mi
4:00 PM57 °FOvercast.3 mph45%30.06 "Hg19 mi
3:00 PM56 °FOvercast.N/A44%30.07 "Hg19 mi
2:00 PM56 °FOvercast.N/A41%30.08 "Hg19 mi
1:00 PM55 °FOvercast.N/A43%30.10 "Hg19 mi
12:00 PM54 °FOvercast.N/A44%30.11 "Hg19 mi
11:00 AM53 °FOvercast.N/A47%30.12 "Hg19 mi
10:00 AM53 °FOvercast.3 mph48%30.12 "Hg16 mi
9:00 AM52 °FOvercast.N/A62%30.12 "Hg16 mi
8:00 AM51 °FOvercast.N/A67%30.12 "Hg16 mi
7:00 AM50 °FOvercast.N/A69%30.11 "Hg16 mi
4:00 AM48 °FOvercast.N/A75%30.10 "Hg12 mi
3:00 AM49 °FOvercast.2 mph74%30.10 "Hg12 mi
2:00 AM49 °FOvercast.N/A74%30.10 "Hg12 mi
1:00 AM49 °FOvercast.N/A73%30.11 "Hg12 mi
12:00 AM49 °FOvercast.3 mph73%30.11 "Hg12 mi
10:00 PM
Wed, May 27
50 °FOvercast.3 mph69%30.11 "Hg12 mi
Weather by CustomWeather, © 2015

See weather overviewHow to use our weather pages